Home > Weather > Yorkton > Past weeks

Flag for Canada Past Weather in Yorkton, Saskatchewan, Canada — Yesterday and Last 2 Weeks

Now
63 °F

Sunny.


Feels Like: 63 °F
Forecast: 47 / 70 °F
Wind: 7 mph from Northeast

Location: Yorkton

Current Time: Jun 30, 2016 at 11:41:40 AM

Latest Report: Jun 30, 2016 at 11:00 AM


Visibility: 9 mi

Pressure: 30.32 "Hg (28.56 "Hg at 505m altitude)

Humidity: 45%

Dew Point: 41 °F

Location of YorktonLocation

Past Weather in Yorkton — Graph

°F

Yorkton Temperature Yesterday

Maximum temperature yesterday: 77 °F (at 3:00 PM)
Minimum temperature yesterday: 54 °F (at 11:00 PM)
Average temperature yesterday: 66 °F

High & Low Weather Summary for the Past Weeks

 TemperatureHumidityPressure
High81 °F (Jun 24, 4:00 PM)100% (Jun 25, 3:00 AM)30.33 "Hg (Jun 25, 3:00 AM)
Low46 °F (Jun 30, 4:00 AM)27% (Jun 17, 4:00 PM)29.56 "Hg (Jun 25, 10:46 AM)
Average64 °F68%29.97 "Hg
* Reported Jun 15 10:00 AM — Jun 30 10:00 AM, Yorkton, Weather by CustomWeather, © 2016

Note: Actual official high and low records may vary slightly from our data, if they occured in-between our weather recording intervals... More about our weather records

Advertising

Yorkton Weather History for the Previous 24 Hours

Scroll right to see more
 ConditionsComfort  
Time TempWeatherWind HumidityBarometerVisibility
10:00 AM
Thu, Jun 30
63 °FPassing clouds.5 mph52%30.32 "Hg9 mi
9:00 AM61 °FSunny.8 mph59%30.32 "Hg9 mi
8:00 AM55 °FSunny.3 mph82%30.32 "Hg9 mi
7:00 AM52 °FSunny.5 mph94%30.32 "Hg9 mi
6:00 AM48 °FSunny.2 mph94%30.31 "Hg9 mi
5:00 AM46 °FSunny.3 mph93%30.29 "Hg9 mi
4:00 AM46 °FClear.3 mph93%30.28 "Hg9 mi
3:00 AM48 °FClear.5 mph87%30.27 "Hg9 mi
2:00 AM50 °FClear.3 mph94%30.26 "Hg9 mi
1:00 AM50 °FClear.3 mph94%30.25 "Hg7 mi
12:00 AM52 °FClear.6 mph88%30.23 "Hg9 mi
11:00 PM
Wed, Jun 29
54 °FClear.8 mph94%30.22 "Hg9 mi
10:00 PM55 °FClear.8 mph88%30.20 "Hg9 mi
9:00 PM59 °FSunny.8 mph88%30.18 "Hg9 mi
8:00 PM66 °FSunny.10 mph68%30.14 "Hg9 mi
7:00 PM70 °FSunny.16 mph60%30.12 "Hg9 mi
6:00 PM73 °FSunny.16 mph47%30.11 "Hg9 mi
5:00 PM72 °FSunny.14 mph50%30.10 "Hg9 mi
4:00 PM75 °FScattered clouds.14 mph47%30.09 "Hg9 mi
3:00 PM77 °FScattered clouds.20 mph47%30.09 "Hg9 mi
2:00 PM75 °FScattered clouds.10 mph54%30.09 "Hg9 mi
1:00 PM75 °FPassing clouds.13 mph54%30.11 "Hg9 mi
12:00 PM73 °FPassing clouds.12 mph57%30.11 "Hg9 mi
11:00 AM72 °FSunny.9 mph65%30.10 "Hg9 mi
Weather by CustomWeather, © 2016

See weather overviewHow to use our weather pages